GFSNE_sfc_wetblb_108.txt.gz
Wetbulb
64.03 62.88 61.70 61.72 62.25 61.83 60.09 59.16 56.39 52.92 54.24 58.28 58.58 59.82 60.99 60.87 58.52 58.12 59.87 52.19 49.66 49.23 49.88 51.33 53.27 54.47 55.06 56.05 56.97 57.81 58.71 59.40 59.88 60.19 60.27 60.72 60.72 60.37
63.23 62.93 61.29 61.99 61.51 61.88 62.49 61.40 60.82 56.59 54.63 59.72 59.75 60.86 60.09 58.84 57.35 60.00 59.76 53.08 49.36 48.32 48.02 48.84 50.17 51.81 52.70 53.29 53.99 54.82 56.05 56.96 57.85 57.79 57.57 57.14 57.08 56.88
62.62 62.70 60.20 62.47 60.75 61.02 62.19 61.75 60.40 59.74 55.75 56.85 60.01 61.47 59.34 59.46 58.48 58.90 59.22 59.78 59.52 47.94 47.27 47.34 47.59 48.26 49.07 49.71 50.59 51.55 52.68 53.25 53.62 53.89 54.35 54.57 54.55 54.06
60.94 59.95 60.41 59.80 59.39 60.12 59.57 59.80 59.83 60.00 58.88 55.40 57.02 58.72 59.31 58.29 57.55 57.31 58.14 59.38 59.37 46.11 46.34 46.25 45.96 45.73 45.87 46.15 46.26 46.55 47.29 47.92 48.78 49.80 50.90 52.02 52.00 51.72
60.76 60.92 60.70 60.57 60.04 61.07 60.65 58.72 58.25 58.77 57.93 56.45 55.52 57.32 58.23 57.05 56.75 53.84 49.92 47.61 45.57 44.30 42.76 42.79 43.32 43.28 43.23 43.14 43.20 43.10 43.02 42.72 42.81 43.10 43.86 44.67 45.50 45.61
57.50 57.42 55.20 53.36 51.07 51.45 55.08 57.72 57.23 56.47 56.59 56.11 55.44 54.82 56.21 56.09 52.42 46.05 44.15 45.39 44.24 43.80 43.60 42.54 42.33 42.19 41.58 41.14 41.07 41.15 40.90 40.40 39.78 39.46 39.12 38.63 39.05 39.37
51.17 48.29 45.92 40.85 38.02 39.67 46.83 53.02 56.63 55.75 55.33 54.71 53.80 53.40 53.21 53.82 49.86 48.39 44.16 40.93 40.83 41.35 40.13 40.42 40.70 40.21 40.45 40.48 40.30 39.59 38.96 38.56 38.12 37.59 36.61 35.51 34.98 34.43
44.89 44.27 42.67 40.95 38.97 35.76 35.86 35.30 35.60 49.21 54.75 54.10 53.56 52.35 52.46 52.98 51.49 46.21 39.57 38.16 35.21 39.88 36.67 34.77 36.71 35.21 36.60 37.10 37.58 37.10 36.57 36.22 35.59 34.66 33.82 32.93 32.20 31.53
41.09 41.48 40.90 39.35 39.22 39.03 35.52 35.00 34.00 33.96 33.89 44.67 53.17 49.88 51.78 52.38 50.15 44.72 43.18 42.05 36.81 35.95 34.42 31.03 33.42 31.82 34.37 35.85 36.48 36.12 35.42 34.65 33.77 32.92 31.78 30.84 30.05 29.27
35.07 35.89 36.02 35.71 34.83 35.17 33.66 33.01 31.61 31.79 32.37 32.73 32.62 32.14 32.86 34.86 46.91 46.24 42.15 32.50 32.62 31.91 34.31 29.70 32.26 30.82 32.71 34.10 35.32 35.02 34.79 33.68 33.07 32.00 30.88 29.26 28.26 27.88
31.68 32.50 32.46 32.10 32.58 34.31 32.34 30.66 30.13 30.14 31.42 32.14 31.82 32.01 32.68 33.46 35.77 38.69 35.67 35.03 32.11 29.20 29.56 30.91 30.47 27.48 27.84 28.66 33.19 34.98 34.27 33.06 32.26 31.19 30.19 28.14 26.81 27.49
29.77 30.33 31.13 31.07 30.83 30.90 30.15 28.64 25.38 25.62 27.00 27.61 27.10 26.86 27.28 28.02 30.25 30.66 36.31 35.31 29.34 27.69 27.92 29.56 27.86 27.32 23.21 26.24 28.28 28.88 29.59 30.09 29.47 28.20 27.42 26.38 25.88 31.93
26.90 27.16 29.06 29.86 29.94 29.76 29.03 27.18 26.57 27.89 26.33 25.81 25.16 24.73 24.21 23.86 24.09 25.26 26.49 28.53 26.32 22.78 25.86 29.28 27.48 28.88 25.86 23.22 26.06 28.30 27.68 26.76 28.07 28.56 26.01 25.25 24.74 24.93
24.83 25.98 27.26 28.83 28.73 28.33 27.47 27.70 27.22 26.95 26.25 24.27 23.12 22.45 22.26 22.26 22.77 23.28 24.14 25.09 26.13 25.67 28.16 29.93 28.64 29.97 26.86 25.90 24.62 27.71 29.07 29.88 30.42 30.45 30.72 27.05 25.38 24.71
27.34 26.47 26.47 27.00 26.91 26.44 27.17 27.32 27.14 26.72 24.81 23.48 22.42 22.42 23.43 24.71 25.24 24.48 24.62 24.06 23.37 24.55 27.13 28.68 28.78 30.00 30.69 29.25 27.45 27.84 26.71 27.88 28.40 27.67 27.83 27.46 27.99 27.74
27.58 27.49 26.85 26.38 26.29 26.78 27.24 27.38 27.44 27.56 27.17 26.58 25.92 26.36 26.83 26.34 25.65 26.23 24.58 24.49 22.99 21.54 24.06 26.39 28.00 28.01 26.16 25.99 25.30 23.06 24.47 23.83 25.68 25.29 24.57 25.34 26.97 27.73
29.11 29.05 28.33 27.78 25.73 25.69 25.90 26.53 28.13 28.04 27.25 27.58 27.14 26.70 26.40 26.44 25.99 27.24 26.52 25.42 23.14 22.32 21.67 22.85 25.11 26.17 25.47 24.56 22.33 23.33 22.68 23.61 25.68 24.86 23.53 23.59 26.00 27.48
26.88 25.43 24.92 25.16 24.17 23.97 22.90 23.40 24.89 25.01 26.22 26.29 26.19 25.56 25.12 24.74 24.33 24.86 25.42 24.67 22.56 21.81 21.28 22.08 22.88 22.23 21.74 21.79 22.67 22.62 23.41 23.32 24.13 23.29 23.15 21.48 22.86 27.33
25.01 24.58 24.29 23.91 22.85 22.67 22.42 22.54 21.37 22.09 23.69 24.72 24.82 24.60 24.21 23.57 24.22 23.59 23.68 23.00 21.57 21.32 21.30 22.47 22.53 23.01 20.37 20.39 19.88 19.68 21.41 21.92 21.57 21.75 22.65 21.93 21.64 23.56
23.17 22.80 22.32 22.48 21.95 21.54 21.03 21.03 21.16 21.84 21.83 22.21 22.55 22.93 23.43 23.48 22.69 22.22 22.95 22.27 21.41 21.00 20.47 21.60 20.89 20.56 21.53 20.72 20.33 20.67 16.36 19.41 20.23 19.75 20.41 21.99 23.33 23.29
21.11 21.07 21.77 21.30 20.86 20.38 20.10 19.60 18.87 18.62 19.89 20.50 20.43 20.68 21.92 21.93 20.46 19.91 18.53 17.37 19.43 20.78 18.89 18.42 17.83 14.99 21.03 20.44 19.60 19.82 20.55 16.84 16.30 16.70 18.04 18.52 20.16 22.39
20.72 19.99 19.84 20.03 19.86 19.91 20.09 19.68 19.83 19.49 19.08 18.98 18.78 19.63 20.52 20.75 19.13 18.92 19.74 19.43 19.25 19.52 18.44 19.27 19.70 20.51 20.12 18.32 17.79 16.24 19.92 19.97 20.03 18.30 17.27 16.00 18.40 17.75
19.36 19.88 19.67 19.37 19.68 19.03 18.54 18.03 16.95 17.14 16.49 17.00 17.82 17.37 18.26 17.86 18.46 18.66 18.11 17.52 17.38 16.60 16.98 17.37 18.78 19.43 17.96 17.10 13.88 17.10 14.65 16.34 18.84 19.28 21.07 17.29 16.07 16.96

GFSNE_sfc_wetblb_111.txt.gz
Wetbulb
66.21 66.10 65.05 64.67 64.81 63.44 62.97 61.14 58.57 53.88 55.45 58.82 60.06 62.05 61.72 61.82 60.38 61.34 60.12 51.39 49.46 49.41 50.86 52.65 54.38 55.39 55.74 56.15 56.89 57.42 58.44 58.84 59.42 59.76 60.15 60.61 60.90 61.18
64.98 63.95 63.91 63.81 63.49 63.66 62.99 62.69 61.66 58.93 56.27 59.52 60.83 62.45 62.01 60.99 59.19 60.87 59.69 52.70 49.16 47.94 48.13 49.61 51.20 52.86 53.30 53.81 54.44 55.15 56.19 57.07 57.93 58.62 59.22 59.89 60.23 60.12
63.85 63.30 63.21 63.56 62.88 62.40 62.75 62.48 61.87 61.03 57.93 59.71 61.25 62.78 61.96 60.67 60.14 60.28 59.21 58.68 54.72 47.98 47.38 47.90 48.21 49.01 50.13 50.66 51.43 52.43 53.50 54.17 55.11 56.08 57.10 57.53 57.84 58.04
62.80 62.73 62.63 62.51 62.73 62.81 62.52 61.94 61.58 61.56 59.44 57.63 60.38 60.89 60.69 59.89 59.26 58.28 58.63 59.15 58.52 47.87 47.42 47.30 47.24 46.79 46.97 47.30 47.73 48.38 49.10 49.73 50.43 51.39 52.38 54.04 55.05 55.21
62.64 62.40 62.22 61.85 61.28 61.46 61.53 60.68 61.46 61.08 59.84 58.95 57.91 59.22 60.34 59.11 58.38 56.08 50.26 46.81 46.03 44.97 43.53 44.33 45.26 45.82 45.73 45.58 45.89 45.94 45.92 45.92 45.73 46.02 46.99 47.44 48.91 50.07
61.19 61.23 59.75 58.76 58.89 58.43 57.83 58.92 59.47 59.08 58.15 57.10 56.56 56.85 57.07 58.11 56.56 48.65 45.42 45.44 43.85 44.21 42.83 42.59 43.11 43.61 44.17 43.25 43.16 43.24 42.94 42.69 42.28 41.51 40.63 40.22 40.69 42.08
54.34 51.39 45.52 41.63 38.55 38.93 46.38 50.49 53.50 55.47 55.83 55.21 55.42 54.82 54.46 54.17 48.33 48.72 44.19 40.42 40.14 41.03 40.35 40.76 41.19 41.06 41.60 42.92 42.76 41.35 40.76 40.56 40.07 39.31 38.08 37.21 36.77 36.55
46.71 44.11 41.52 39.86 37.22 35.94 35.79 34.88 35.06 40.93 49.84 54.92 54.92 53.61 53.09 53.87 51.37 46.22 40.45 38.53 35.55 40.03 35.37 32.73 36.17 35.43 37.02 38.44 39.09 39.00 38.89 38.29 37.50 36.50 35.70 34.68 33.80 33.15
43.03 42.00 40.70 39.30 39.75 40.34 35.66 34.63 33.31 33.52 33.25 38.01 46.81 44.45 49.39 52.52 50.57 45.13 42.80 42.14 36.86 35.69 35.88 31.38 32.57 31.53 33.89 36.37 37.02 36.65 36.09 35.67 34.65 34.05 33.37 32.21 31.46 30.78
34.77 35.93 35.36 35.20 34.95 36.61 34.88 32.72 31.26 31.20 31.38 31.99 32.31 31.77 32.43 34.24 46.58 46.28 43.50 33.34 33.67 33.34 34.94 30.02 32.04 30.79 31.96 33.56 35.58 35.01 34.36 33.59 33.19 32.29 31.68 30.89 29.95 29.33
31.74 32.38 32.13 31.90 33.15 34.85 33.10 31.19 29.74 29.80 31.33 31.06 30.76 30.53 31.25 33.16 37.91 39.14 35.60 35.22 32.07 30.31 31.68 31.54 30.04 26.74 27.69 31.60 32.78 34.20 33.58 32.89 32.29 31.75 31.08 29.76 28.48 28.22
29.41 30.34 31.38 30.81 31.16 30.96 29.55 28.38 25.67 26.08 26.81 27.11 26.84 26.99 27.25 27.79 29.92 31.83 35.88 36.58 31.17 29.73 29.71 28.83 27.05 27.47 23.66 26.87 28.75 30.79 31.25 31.68 31.40 30.84 29.86 27.56 26.24 27.47
26.64 27.28 29.14 30.34 30.36 30.08 29.15 27.61 26.50 27.74 26.60 25.95 25.02 24.75 24.49 23.93 24.72 26.22 27.88 30.74 27.29 24.41 27.88 30.98 28.80 27.58 25.65 23.52 26.84 27.36 27.40 27.45 27.60 27.68 27.70 26.26 25.53 25.06
24.62 26.37 28.15 29.67 29.85 29.56 28.70 28.63 27.83 27.32 26.09 24.77 23.74 22.77 22.42 22.43 23.01 23.67 24.80 25.93 27.64 27.56 30.23 31.70 29.05 27.84 24.58 23.84 23.20 27.21 27.72 28.82 29.08 27.68 27.35 26.86 26.05 25.67
27.50 28.29 28.81 29.55 29.84 28.96 29.22 29.72 29.63 27.70 25.38 23.61 22.78 23.17 24.51 25.69 25.98 25.46 25.37 25.50 25.46 26.90 29.63 31.29 31.68 29.76 30.24 28.52 25.07 26.76 26.81 27.34 28.83 28.15 27.73 27.24 27.27 27.81
30.88 31.01 29.75 29.27 29.18 29.55 30.06 30.30 30.12 29.78 29.20 28.15 27.57 28.24 28.91 28.67 27.69 27.46 24.71 24.10 22.38 22.59 26.77 28.97 30.24 29.97 28.15 29.48 28.61 26.86 27.44 23.21 25.48 25.52 25.06 25.43 26.68 28.27
30.09 30.25 29.11 29.57 28.23 28.32 28.13 28.08 29.07 29.31 28.22 29.15 28.56 27.42 26.98 26.97 26.56 27.90 26.58 25.72 23.28 21.45 21.89 24.55 26.66 27.23 26.95 26.74 23.77 24.11 23.31 23.59 24.55 24.05 23.21 23.33 26.39 27.81
27.95 26.09 25.36 25.37 24.55 25.22 24.97 24.86 25.62 25.77 26.58 27.13 27.29 26.82 26.40 26.30 25.82 26.41 26.62 25.04 22.51 21.91 21.54 22.86 22.41 21.49 22.02 22.45 23.64 23.15 23.36 23.56 23.71 23.10 22.77 21.45 22.70 27.40
25.29 24.89 24.59 24.69 23.67 23.16 22.89 23.07 22.64 24.01 25.48 25.64 25.33 25.10 25.30 25.56 25.73 25.05 24.83 24.09 22.66 22.70 22.71 23.88 23.55 23.51 20.71 19.31 19.81 20.78 22.35 21.71 21.55 21.50 22.79 22.00 21.59 23.76
23.42 22.74 22.33 22.48 21.87 21.53 21.54 21.84 22.62 23.28 23.24 23.74 24.18 24.43 24.97 24.62 24.07 24.03 24.29 23.53 22.51 22.15 21.80 22.66 22.43 22.46 23.05 22.55 20.41 19.54 18.35 20.56 21.00 20.72 20.76 22.51 23.80 24.90
21.87 21.31 21.70 21.55 21.41 21.41 21.67 21.36 20.54 19.54 21.16 22.14 22.10 22.41 23.36 23.02 21.76 21.14 19.76 19.29 21.60 22.06 20.24 19.11 18.16 15.83 21.52 21.88 19.74 19.30 19.38 18.24 18.04 17.99 18.70 18.09 19.02 21.84
22.22 21.60 21.34 21.20 20.99 21.07 21.33 21.02 21.09 20.45 20.61 20.46 20.31 21.17 22.06 22.30 20.67 20.65 21.34 21.03 20.71 20.53 19.41 19.91 20.73 21.27 20.81 19.73 18.23 17.40 19.88 20.33 21.18 20.36 19.00 17.41 17.58 16.74
20.38 20.88 21.04 20.82 21.18 20.71 20.33 19.90 18.73 18.76 17.59 18.27 18.89 18.98 19.55 19.24 19.94 19.92 19.29 18.75 18.61 17.98 18.48 18.27 19.26 20.06 18.58 17.92 15.16 17.74 16.71 17.45 19.41 19.55 20.62 19.90 19.38 19.13

GFSNE_sfc_wetblb_117.txt.gz
Wetbulb
63.77 63.02 62.16 61.74 61.45 59.76 59.85 59.01 56.26 51.88 52.94 54.42 54.84 58.07 60.95 61.05 60.15 59.69 60.52 53.84 50.74 50.22 51.31 53.45 55.33 56.42 56.20 56.45 56.87 57.34 57.94 57.76 58.31 58.20 58.45 59.03 59.42 59.63
63.81 63.03 62.09 61.52 59.86 59.89 59.30 59.47 58.29 54.92 52.47 54.99 56.11 56.79 59.20 59.37 57.87 59.41 58.53 53.26 49.82 48.57 49.13 50.69 52.60 54.11 54.46 54.46 54.66 55.15 56.04 56.58 57.00 57.09 57.51 57.87 58.59 59.22
62.86 62.20 61.10 60.00 59.60 59.03 58.67 57.29 59.14 58.22 55.21 54.12 55.95 56.63 56.55 57.65 57.33 57.75 58.53 58.17 54.46 48.17 47.83 48.73 49.55 50.36 51.18 51.70 52.04 52.82 53.66 54.09 54.84 55.52 56.26 57.17 58.33 59.06
62.34 61.73 60.30 59.08 58.37 57.82 58.70 57.25 58.61 58.93 56.11 53.78 54.85 54.83 55.64 57.27 57.65 57.89 57.97 59.37 58.08 49.38 47.77 47.81 48.37 48.95 49.31 49.22 49.23 49.67 50.13 50.78 51.43 52.32 53.47 54.92 56.67 57.92
61.85 61.55 61.33 59.90 57.41 58.34 59.18 59.28 59.31 59.18 58.01 54.99 54.29 54.43 54.71 57.21 56.44 57.25 56.71 53.37 53.17 49.36 46.47 46.31 47.23 48.01 48.03 47.48 47.86 48.09 48.31 48.41 48.57 48.79 49.18 49.92 51.62 53.70
60.94 61.34 61.27 59.77 57.59 58.34 59.35 59.05 57.92 58.09 56.65 56.87 55.70 55.50 55.91 56.37 56.65 53.09 48.68 47.19 45.55 44.92 44.42 45.45 47.10 47.03 47.07 46.72 46.47 46.70 47.09 47.68 47.86 47.57 46.74 45.82 46.41 48.41
50.92 47.73 46.41 47.48 49.58 53.68 54.87 52.62 54.10 53.21 54.13 54.17 53.63 53.92 54.13 53.95 54.39 52.08 51.50 41.58 40.08 41.73 40.26 39.05 42.67 43.59 44.69 45.06 47.14 46.18 45.55 45.67 45.85 46.07 45.60 44.00 43.97 45.17
41.57 39.61 39.34 39.18 39.31 38.57 37.67 35.69 40.28 47.73 48.55 49.81 52.06 51.95 52.59 52.32 52.67 49.15 41.56 40.12 40.86 39.89 35.99 33.54 37.06 36.39 38.06 40.49 42.68 43.46 43.62 43.43 43.37 43.50 43.94 43.30 41.03 41.06
42.00 42.63 39.39 38.56 35.51 34.02 33.66 33.48 33.03 33.03 33.41 39.08 42.38 34.96 37.25 35.10 35.94 45.93 43.70 41.95 39.03 35.13 35.34 31.85 32.68 31.94 34.99 38.15 40.10 40.48 40.46 40.25 39.77 39.08 38.81 38.53 37.88 36.89
33.85 36.05 37.66 35.88 35.64 33.91 32.44 30.07 29.60 29.79 29.84 30.24 29.51 29.27 30.50 31.93 34.54 39.95 41.41 33.00 33.72 33.18 34.42 30.66 31.61 30.13 31.94 33.80 37.12 37.47 37.00 36.75 36.39 35.77 35.12 34.76 34.48 33.85
31.36 31.62 32.97 31.56 33.66 33.70 29.89 27.56 26.77 27.02 31.03 31.03 30.61 29.93 29.82 31.36 33.12 38.11 35.29 35.98 31.88 31.90 32.27 31.10 30.01 28.07 29.73 30.84 32.58 35.09 34.61 34.61 34.26 33.73 33.51 33.09 32.44 31.64
29.70 30.33 31.83 30.90 31.57 31.16 28.61 27.02 24.20 24.51 25.62 25.82 26.13 26.59 27.21 27.69 29.64 29.16 32.98 35.34 31.39 31.47 31.91 29.00 28.05 27.98 24.65 27.75 30.51 31.02 31.52 32.66 32.82 32.84 32.84 32.59 31.36 28.65
28.06 28.65 30.53 31.53 31.00 30.40 29.35 27.13 25.86 26.69 26.12 26.06 25.86 26.00 25.82 25.60 26.15 27.52 29.67 32.30 30.65 27.53 30.93 31.29 29.10 27.38 26.17 24.42 26.79 28.84 29.81 29.81 29.25 29.41 30.55 30.37 30.98 30.33
27.44 28.64 30.14 32.03 32.02 31.62 30.11 30.05 29.07 27.71 27.42 26.74 25.94 25.07 24.93 24.84 25.93 26.88 27.95 28.96 30.86 30.34 31.26 31.91 28.43 26.55 24.97 23.72 22.45 25.81 26.32 26.87 26.91 25.72 25.94 27.92 28.07 27.47
28.56 29.24 29.04 28.84 28.68 28.09 29.99 29.98 28.88 27.98 26.90 25.52 25.10 25.48 26.30 27.53 28.32 27.46 27.80 28.42 27.40 26.86 29.56 30.66 28.86 27.84 27.76 24.53 22.83 23.82 24.16 26.22 26.92 25.52 26.33 26.46 25.83 26.55
25.66 25.41 25.82 26.16 25.28 25.14 25.51 26.73 27.34 27.30 26.99 25.88 25.38 26.17 27.52 26.93 25.67 26.40 24.95 25.70 24.50 23.99 26.16 26.80 29.27 29.50 26.45 26.06 26.08 24.04 26.30 24.40 26.52 26.33 26.32 26.54 27.12 27.74
23.92 23.13 22.22 22.12 21.75 22.18 22.56 23.23 24.49 25.56 24.62 25.36 25.38 25.48 25.30 25.59 24.90 25.38 24.37 23.30 21.37 21.63 22.26 24.91 26.16 25.82 26.48 27.73 24.67 24.54 24.04 23.80 24.91 25.04 23.88 22.98 24.81 26.18
20.85 18.97 18.61 18.73 18.37 19.30 19.68 20.50 21.60 22.09 23.19 24.18 23.66 24.11 24.15 24.35 23.83 23.94 23.86 22.03 20.54 21.52 22.01 23.75 24.83 24.80 24.58 23.94 26.16 23.58 23.84 23.15 24.37 24.68 23.89 21.68 22.58 25.90
18.38 17.87 17.40 17.95 18.31 18.35 18.03 18.02 18.11 20.16 22.17 21.57 21.56 21.63 22.25 22.76 22.77 22.26 21.86 21.29 21.50 22.02 22.41 23.83 23.95 23.21 19.82 16.31 20.31 24.67 22.86 23.01 22.27 21.24 21.95 21.96 21.35 22.93
18.28 17.17 16.39 17.33 18.31 17.56 18.81 17.83 17.61 17.79 18.61 19.25 18.96 19.39 19.53 19.56 18.87 18.64 18.97 17.99 18.30 18.23 16.76 17.53 17.26 19.02 18.74 16.12 15.99 16.75 23.93 21.15 20.72 20.21 19.85 20.27 21.19 24.06
16.64 17.24 16.96 16.55 16.14 17.17 14.45 15.37 13.40 14.33 15.07 14.61 15.49 15.94 15.80 17.12 16.39 16.62 16.27 14.77 17.17 17.67 14.56 13.52 15.31 15.66 21.32 19.45 10.51 13.47 16.85 21.24 19.67 16.53 16.76 13.82 13.95 16.99
13.29 14.91 15.02 13.52 13.37 14.03 14.88 10.68 11.46 11.05 12.01 12.57 10.86 11.39 11.74 13.84 12.54 12.88 13.19 13.19 15.14 15.24 15.39 16.72 19.15 19.75 19.37 19.36 13.99 9.44 15.77 16.65 19.46 20.07 19.98 18.08 13.64 8.29
4.38 10.51 12.71 10.87 10.09 9.97 11.80 12.15 8.62 7.82 7.95 7.85 8.74 9.63 7.85 8.67 11.71 11.37 10.60 11.71 13.46 13.69 15.65 15.26 16.90 17.42 16.42 15.19 14.78 13.54 13.06 11.64 16.58 16.77 18.01 21.50 20.80 20.74

GFSNE_sfc_wetblb_123.txt.gz
Wetbulb
54.52 61.18 59.81 60.58 60.80 60.69 60.15 58.37 57.07 53.32 53.64 54.82 56.42 59.98 61.33 61.70 59.96 59.98 59.38 52.07 49.53 49.01 50.13 52.31 54.64 55.91 56.60 57.74 58.52 58.83 59.26 59.12 59.12 58.62 58.56 59.24 59.57 59.27
53.59 58.57 60.57 60.91 60.69 61.09 60.45 59.54 59.24 57.68 53.79 56.72 55.64 57.48 60.14 60.85 59.28 60.32 58.85 52.61 49.15 47.94 48.32 49.77 51.58 53.58 54.28 54.93 55.80 56.54 57.12 57.35 57.36 57.44 57.43 58.05 58.62 58.48
51.20 54.97 59.83 60.73 60.43 60.73 60.33 59.97 59.17 58.75 56.02 56.68 55.36 55.54 59.03 59.35 59.40 59.82 59.39 58.10 54.35 47.92 47.56 48.12 48.68 49.59 50.86 51.74 52.96 53.97 54.90 55.15 55.24 55.80 56.41 57.06 58.01 58.22
50.21 51.56 57.17 60.72 59.41 60.26 59.95 59.90 59.45 58.64 57.61 55.82 53.74 53.48 54.35 58.22 58.35 57.56 58.49 58.91 58.06 48.59 47.20 47.01 47.39 47.58 47.78 48.50 49.23 50.13 52.22 52.32 52.37 53.27 53.80 54.99 56.18 57.11
50.88 51.77 54.78 59.34 59.28 58.99 59.35 59.70 59.65 58.62 57.83 57.37 54.09 53.36 53.60 55.64 55.53 56.52 56.88 57.14 54.91 49.35 45.91 45.20 45.93 46.47 46.83 46.85 47.21 48.68 48.83 49.53 50.05 49.92 49.50 50.05 51.65 53.52
52.01 52.82 54.77 58.31 59.13 59.21 58.61 59.38 59.43 58.80 58.18 57.43 54.80 52.74 53.52 55.27 55.16 54.21 51.53 51.87 49.68 46.85 43.71 42.71 44.62 45.02 45.00 45.02 45.20 46.27 47.18 48.55 49.46 49.44 48.15 46.65 47.00 48.80
51.17 49.05 46.87 47.20 48.90 56.00 59.07 59.38 58.37 57.06 56.90 56.50 55.52 52.94 52.41 54.37 55.10 54.13 54.17 47.68 43.70 44.57 42.60 37.96 40.41 40.62 39.98 41.32 44.05 44.99 45.38 46.25 47.61 48.52 47.83 46.38 45.78 46.78
40.08 38.95 38.80 38.83 41.90 42.70 42.34 43.24 50.38 56.32 55.88 55.48 54.78 54.21 54.45 54.44 55.32 53.81 47.63 46.05 46.27 41.13 40.23 34.65 36.65 34.37 35.50 37.31 39.34 40.50 41.66 44.30 45.71 47.23 47.76 47.23 46.65 45.37
33.63 34.59 34.57 35.17 37.54 39.63 38.30 36.42 34.94 34.76 36.80 50.76 54.13 52.82 50.47 48.53 49.58 48.23 46.58 46.56 44.99 36.84 37.66 32.16 32.91 31.36 33.05 35.50 37.56 39.27 40.97 42.10 43.74 44.11 45.31 45.33 44.69 43.97
31.06 31.79 32.30 32.49 33.26 33.60 32.38 31.06 30.31 32.43 31.89 32.04 33.33 31.90 32.13 33.45 39.01 44.75 44.39 34.00 33.45 33.27 35.16 32.17 30.83 29.23 31.73 32.55 36.06 37.17 38.42 40.36 42.10 42.65 43.37 43.21 42.48 42.48
30.21 31.38 30.83 30.70 32.77 34.51 31.76 29.26 29.37 28.18 30.63 31.88 31.96 31.40 32.23 33.32 34.45 38.04 35.05 37.72 32.37 32.19 32.19 31.54 29.05 27.60 28.82 29.34 31.46 35.42 36.29 36.67 37.73 38.66 39.40 38.81 37.65 36.47
27.80 29.05 31.64 31.38 32.16 31.05 28.93 28.72 27.07 26.72 28.19 29.47 29.33 29.36 29.39 29.33 30.94 30.34 33.61 35.61 32.73 31.58 32.37 29.78 28.10 28.82 25.44 28.46 29.48 31.06 32.20 34.64 35.15 35.34 35.55 35.42 35.02 33.14
24.70 26.02 28.11 30.68 31.00 30.95 30.26 28.03 27.36 28.62 27.79 28.21 28.01 28.00 27.92 27.88 27.92 28.07 27.96 30.27 32.55 31.97 32.34 31.80 28.74 28.36 27.32 24.81 26.13 27.18 28.07 28.67 30.34 31.46 32.64 32.80 32.75 32.12
23.19 24.69 26.49 28.76 28.81 28.86 27.92 28.66 28.81 27.96 27.34 26.54 26.00 25.24 25.33 25.86 26.89 27.72 27.97 27.76 28.37 29.68 31.55 32.34 29.14 28.35 25.61 23.62 22.95 25.56 26.00 26.50 27.41 27.79 30.08 31.19 31.23 30.83
22.25 23.47 24.59 24.84 25.22 24.40 26.41 26.37 25.54 25.30 25.07 24.28 23.72 24.36 25.52 26.29 26.99 27.33 28.24 28.40 27.89 27.68 28.89 30.58 29.70 28.91 28.43 25.51 23.40 23.42 23.83 24.83 26.36 25.88 26.73 27.37 27.99 27.90
20.43 20.43 20.74 21.63 20.71 20.91 21.40 22.20 22.80 22.94 22.89 22.76 23.75 25.44 26.28 25.88 24.94 25.76 24.88 25.67 24.78 24.79 27.06 27.85 29.50 29.02 26.33 26.29 25.41 23.76 24.56 22.36 25.30 25.70 25.35 25.83 26.92 27.70
18.32 17.94 17.08 17.31 16.96 17.31 18.08 18.82 19.55 20.38 20.01 21.12 21.38 22.37 23.15 24.47 24.39 25.39 24.95 24.67 22.57 22.66 23.35 25.65 26.71 26.81 26.84 27.08 24.48 24.81 23.62 23.58 25.28 25.25 25.15 23.83 25.60 26.86
15.94 13.89 13.91 14.22 14.40 14.29 14.63 15.29 16.21 16.50 17.65 18.38 18.46 19.33 20.05 20.87 21.79 23.56 24.60 23.23 21.91 21.51 22.25 24.41 25.63 25.55 25.03 24.58 27.93 24.01 24.03 23.66 24.55 24.93 24.69 22.33 22.59 25.92
11.94 11.47 11.27 11.97 13.37 13.47 13.29 13.27 12.57 13.64 15.63 14.80 14.18 15.03 16.88 18.90 19.54 19.82 20.98 21.06 19.62 19.13 19.35 21.45 23.55 24.19 20.40 16.84 21.88 27.57 22.97 23.43 23.20 22.72 23.48 22.66 22.48 24.47
11.50 9.50 8.69 10.06 11.28 11.39 10.89 10.27 10.12 10.17 10.05 11.20 11.28 11.68 11.54 14.84 14.91 15.77 17.50 17.42 17.72 17.67 17.07 18.02 17.92 20.07 19.65 17.61 16.88 18.35 26.99 23.07 21.96 20.69 20.69 21.56 23.06 26.24
10.23 9.48 8.90 8.68 8.91 9.64 5.91 4.47 4.48 4.65 5.06 6.28 7.35 8.87 8.53 11.52 11.94 13.43 13.60 12.44 13.63 15.17 13.08 13.54 15.39 19.05 18.93 18.94 14.06 14.71 17.57 24.19 23.51 20.53 20.09 17.98 17.57 19.33
5.60 7.43 6.87 5.26 3.98 5.42 1.63 -1.81 1.54 0.96 2.40 3.79 3.72 4.63 5.39 8.64 9.40 9.61 10.88 11.52 13.26 13.80 13.91 15.19 17.76 19.20 19.29 16.41 11.35 10.33 14.43 14.65 21.19 22.06 21.82 19.54 15.70 13.41
-2.12 2.85 -0.06 -1.57 -1.53 -1.18 3.11 -2.69 -3.72 -5.17 -2.23 -1.37 -0.79 1.58 2.18 5.49 7.49 7.85 8.78 10.26 11.19 11.36 12.80 12.86 15.18 16.05 16.37 15.30 13.40 11.85 11.11 11.11 14.80 14.86 15.84 21.32 21.61 21.76

GFSNE_sfc_wetblb_126.txt.gz
Wetbulb
46.93 49.31 51.73 59.55 60.08 59.33 59.06 57.81 55.17 51.80 52.66 55.94 57.04 60.75 61.41 61.51 60.01 60.91 60.08 53.93 50.24 49.50 49.48 52.14 53.59 55.90 56.24 57.33 58.68 59.50 60.09 60.44 60.31 59.99 59.80 59.77 59.73 59.90
46.80 47.71 50.55 54.25 60.50 60.21 59.78 58.68 57.64 55.74 52.74 56.71 56.93 58.28 60.92 60.72 60.04 61.13 60.24 54.23 49.37 48.29 47.92 48.81 51.19 53.36 54.09 55.01 55.68 56.81 57.83 58.35 58.61 58.78 58.47 58.56 59.07 59.08
46.72 47.53 49.17 52.60 56.19 60.05 60.38 59.40 58.70 57.95 55.38 57.69 57.35 57.94 59.76 60.01 60.14 60.32 59.66 58.77 55.70 48.07 47.36 47.54 48.29 49.57 50.66 51.57 52.29 53.36 54.49 55.54 56.39 56.84 57.34 57.67 58.39 58.80
45.85 46.75 48.26 50.70 52.85 57.55 59.89 59.51 59.19 59.17 57.82 56.33 55.39 55.14 58.24 59.43 59.67 59.03 59.24 58.88 58.69 49.10 47.33 47.00 47.18 47.58 47.94 48.49 49.39 49.94 50.84 51.91 52.66 53.28 54.22 55.39 56.44 57.60
45.23 48.46 49.47 50.11 50.75 54.19 57.59 58.98 59.47 58.92 58.74 57.58 56.51 54.38 56.55 57.62 57.35 57.81 58.15 57.79 56.97 50.41 46.62 45.90 46.46 46.82 46.66 46.66 47.20 47.76 48.85 49.94 49.76 50.33 50.69 51.50 52.22 53.89
42.71 45.18 47.90 50.01 51.87 52.59 55.83 57.45 58.73 58.38 58.00 57.60 57.28 53.49 54.95 55.50 57.09 55.10 53.91 54.65 49.64 46.59 44.85 45.15 44.97 44.99 44.41 44.27 44.46 45.55 45.91 46.28 47.54 47.73 47.63 47.18 48.65 49.32
41.72 44.29 45.46 46.25 44.73 44.87 54.03 56.61 57.66 57.58 57.22 56.78 56.52 54.58 53.98 54.25 54.68 55.45 55.22 51.22 46.95 46.53 43.58 41.25 42.81 42.40 40.98 40.80 41.30 41.28 42.66 44.46 45.55 46.64 46.64 46.11 45.41 46.31
35.23 36.06 36.67 37.27 39.70 37.19 37.98 37.11 45.75 56.89 56.59 56.40 56.04 54.89 54.94 55.09 56.01 54.52 50.49 47.67 46.80 43.32 42.57 36.10 38.52 36.02 36.75 37.54 38.47 39.46 40.70 41.59 43.16 44.77 45.82 46.20 46.89 46.49
31.60 32.20 33.46 34.79 35.17 35.06 33.53 33.66 33.71 34.67 34.67 47.18 55.01 53.32 53.61 53.66 55.81 54.06 50.08 52.02 50.29 41.53 40.51 33.26 33.86 31.96 34.18 36.29 37.36 38.64 39.11 40.51 41.81 42.62 43.74 44.27 44.83 45.02
30.32 30.74 31.13 31.20 32.79 33.14 32.19 31.53 30.98 31.38 31.82 32.55 32.90 32.31 32.10 34.17 40.38 47.58 52.57 39.97 34.53 33.80 36.51 33.80 31.95 30.53 31.96 32.79 36.35 37.32 38.02 38.90 40.51 41.50 42.22 42.62 42.83 44.07
27.64 29.51 29.47 29.71 31.96 32.52 32.14 31.81 30.33 30.00 32.68 33.43 33.23 32.48 32.71 33.29 33.77 40.36 37.58 42.39 32.72 32.90 33.80 32.72 29.71 28.29 29.92 30.12 31.84 35.64 36.36 37.15 38.18 40.18 40.79 41.35 41.69 41.32
25.09 26.45 29.49 29.30 30.50 30.34 28.09 27.99 26.84 27.40 30.16 31.14 31.12 31.44 31.69 31.18 31.53 30.60 31.50 34.35 32.53 32.35 33.08 31.48 28.81 29.86 26.71 28.61 29.48 30.56 32.90 34.12 34.61 35.80 36.79 37.88 37.76 34.80
22.08 22.49 25.38 28.07 28.76 28.90 28.48 26.69 26.95 28.33 27.99 28.32 28.22 28.21 28.73 28.88 29.01 29.30 29.04 29.51 32.13 31.71 31.76 32.16 29.92 29.89 28.61 25.38 26.92 27.69 28.37 29.65 31.27 31.67 33.93 34.72 35.11 34.57
19.99 21.91 23.07 25.55 25.90 26.51 25.30 26.42 26.64 26.27 26.73 25.90 25.33 25.12 25.38 25.75 26.94 28.25 28.40 28.35 28.72 28.70 30.73 31.65 29.39 29.27 26.58 24.32 23.75 25.92 26.63 27.78 29.15 29.95 31.03 32.22 32.53 32.01
20.07 21.33 22.33 22.10 22.30 21.35 23.50 23.17 22.04 22.23 22.13 22.14 22.67 23.66 25.44 26.63 27.43 27.21 28.46 29.04 28.54 27.75 28.65 30.64 30.07 29.51 28.82 25.92 23.34 23.66 24.55 25.44 27.25 27.67 27.71 28.73 28.17 28.65
17.91 17.42 17.75 19.21 17.07 17.69 18.06 18.69 18.88 19.12 19.23 19.08 20.10 22.25 24.32 25.72 25.49 26.30 25.95 26.00 25.30 25.25 27.57 27.64 29.21 29.42 26.53 26.60 25.81 24.31 24.91 23.14 25.59 26.02 26.47 27.28 28.22 28.55
15.03 14.42 13.75 13.79 13.62 13.85 14.51 14.95 15.49 16.34 15.97 17.07 17.41 18.62 20.30 21.65 23.01 25.56 25.06 24.77 22.79 22.90 23.99 26.95 27.79 27.00 26.62 27.13 23.90 24.42 24.07 24.12 25.28 25.76 25.78 24.61 26.58 27.88
11.90 9.41 9.20 10.36 10.68 11.08 11.00 11.16 12.03 12.34 13.91 14.97 15.01 15.58 16.46 18.20 19.92 21.86 23.19 21.94 20.86 20.91 21.45 23.60 26.48 26.44 25.67 25.29 28.29 24.17 24.35 23.89 25.21 25.65 25.57 23.24 23.54 26.63
8.88 7.58 7.22 8.23 9.20 9.10 8.86 8.70 7.91 9.22 11.54 11.72 11.38 12.12 13.13 15.90 16.53 17.61 18.88 19.34 19.22 19.06 19.39 20.85 22.28 24.24 20.75 17.77 22.92 27.12 23.75 24.15 24.30 23.75 24.39 23.97 23.53 25.31
9.00 7.05 6.28 7.56 8.32 7.59 6.59 5.79 5.91 6.11 6.22 7.96 8.22 9.06 9.24 12.62 13.24 14.02 15.40 15.23 16.61 16.88 16.90 18.02 18.24 19.57 20.29 19.31 17.99 19.22 27.39 24.48 23.21 21.74 21.30 23.22 25.61 27.75
8.14 7.36 6.63 6.57 6.78 6.53 3.24 2.55 2.28 2.46 2.71 3.81 4.79 6.10 6.31 9.47 10.51 11.47 12.62 12.72 14.72 15.46 14.14 14.77 17.07 19.87 20.95 21.13 17.54 16.61 19.09 26.22 24.72 22.26 21.50 20.37 19.56 21.09
5.62 6.79 6.15 4.65 3.50 3.72 2.65 -0.64 2.12 0.89 1.31 2.64 2.37 3.02 3.76 7.79 7.70 7.91 9.41 11.26 12.45 13.50 14.41 16.13 18.32 19.36 19.28 17.69 14.42 14.34 16.13 19.08 23.20 23.56 22.55 21.15 20.18 18.21
4.40 4.35 4.42 3.09 4.11 4.33 3.67 -0.89 -1.49 -2.26 -1.52 -0.39 0.74 2.29 2.19 5.13 7.69 7.37 7.04 8.06 9.83 11.17 11.82 12.60 14.98 17.04 16.67 15.55 14.53 14.09 14.27 15.55 16.80 17.05 18.72 22.41 22.89 23.31

GFSNE_sfc_wetblb_129.txt.gz
Wetbulb
47.01 47.43 47.45 50.35 55.38 56.29 60.63 60.05 59.07 56.41 56.92 59.97 59.05 63.72 64.62 65.19 63.19 64.10 62.72 56.65 50.65 50.13 50.71 51.34 53.01 54.36 54.96 56.59 57.86 59.00 59.69 61.00 61.69 60.92 60.60 60.72 60.74 60.87
45.77 46.43 47.23 48.01 51.87 56.04 59.30 60.76 59.88 58.53 57.75 60.75 61.33 62.80 63.92 63.68 62.41 63.96 63.35 56.41 49.98 48.89 48.71 49.18 50.20 52.11 52.91 54.29 55.24 56.14 57.25 58.04 59.00 59.34 59.37 59.69 60.12 59.98
44.30 45.08 46.83 48.14 48.10 53.13 55.98 60.77 59.30 59.64 56.85 60.65 62.52 62.98 62.78 63.46 63.32 63.56 63.19 62.18 60.07 48.70 47.77 47.90 47.77 48.51 50.36 51.27 52.54 53.26 54.71 55.72 56.89 57.71 58.31 58.92 59.35 59.56
40.40 43.05 45.86 47.98 47.86 49.79 55.54 57.52 59.32 59.35 58.54 56.53 61.58 61.79 62.08 63.79 64.06 62.74 62.35 61.43 60.96 51.76 47.73 47.35 47.01 47.26 48.19 48.55 49.46 50.18 51.27 51.99 52.88 54.09 55.41 56.73 57.66 58.35
38.38 40.13 43.66 46.05 46.53 49.08 51.35 55.35 57.30 60.20 59.22 57.75 57.66 62.82 61.84 62.85 62.26 62.04 61.33 60.47 59.77 53.36 46.48 45.94 46.10 46.48 47.26 47.64 48.01 48.55 48.91 49.46 49.64 50.00 50.54 51.16 52.92 54.74
39.73 39.86 41.99 43.65 46.66 49.84 50.73 52.98 56.51 57.50 58.61 57.36 57.28 57.55 59.62 59.61 60.76 58.30 56.57 58.29 56.01 50.81 48.12 47.81 46.72 45.91 46.12 45.96 45.98 46.68 47.26 47.99 48.17 48.01 47.83 47.28 47.95 49.43
36.58 38.11 39.52 38.69 40.05 43.78 49.26 51.89 54.42 56.27 57.35 57.48 55.17 56.44 56.56 56.23 55.47 56.73 57.57 55.95 49.93 48.37 46.97 46.85 46.25 45.60 44.63 44.21 44.88 44.93 44.29 45.04 45.80 46.14 46.14 45.63 46.19 48.06
31.25 32.68 33.48 34.66 36.80 35.20 36.03 34.95 36.76 46.81 54.21 56.86 54.16 55.17 57.37 58.18 57.95 57.14 55.35 50.05 48.33 47.10 46.40 42.23 43.23 40.95 40.08 42.24 40.11 40.52 41.10 41.86 42.79 43.93 45.05 45.25 45.04 45.23
28.48 29.25 30.18 31.78 33.58 34.72 33.67 33.93 34.00 34.06 33.82 45.16 42.50 45.87 51.23 49.32 57.38 57.47 56.07 53.51 53.72 47.93 47.63 37.31 36.74 34.59 37.06 37.54 37.96 39.02 39.54 40.32 41.27 41.82 42.30 42.72 42.91 43.10
27.03 27.55 27.87 28.69 30.59 31.23 32.62 31.93 31.54 31.92 32.37 32.83 32.46 32.05 32.96 35.42 38.19 44.58 56.79 47.99 37.13 36.77 43.47 36.22 32.96 33.32 32.78 34.91 37.03 37.41 38.14 39.05 39.80 40.55 41.11 41.38 41.61 42.12
25.70 27.12 27.11 27.25 29.73 30.47 28.02 28.05 28.96 28.57 32.07 32.92 33.08 33.28 33.46 33.83 34.91 42.71 38.38 44.11 34.23 34.05 34.59 36.04 32.24 31.36 31.83 31.87 33.10 36.43 36.47 36.96 37.74 38.29 39.87 40.29 40.67 40.69
23.05 24.24 26.95 27.03 28.16 27.97 24.90 24.81 24.06 26.09 27.81 28.89 29.55 30.24 30.89 31.50 31.81 32.04 33.52 35.30 34.23 35.14 32.78 34.05 32.42 32.75 31.63 31.83 31.29 32.40 34.23 34.59 35.42 35.90 36.59 38.30 39.77 42.57
20.90 20.69 23.04 24.73 25.63 26.17 25.78 24.15 23.74 25.86 26.16 26.68 27.10 27.59 28.06 28.42 28.99 29.86 30.07 29.16 32.18 31.98 31.26 33.14 32.05 32.60 31.47 27.79 28.40 29.78 30.96 32.84 34.30 35.79 34.89 35.66 36.40 37.78
19.22 20.75 21.12 22.45 22.67 23.21 22.29 23.37 23.57 23.92 24.62 24.64 24.20 24.02 26.53 27.07 28.30 28.95 30.49 28.64 28.58 27.72 30.88 32.24 31.51 31.47 28.01 26.71 26.15 27.51 28.74 30.45 32.44 32.57 32.87 32.70 32.86 32.95
18.89 19.41 20.26 19.88 20.05 19.41 20.46 20.50 20.50 21.43 21.44 20.83 21.01 22.51 24.88 27.52 28.55 29.23 30.21 30.30 29.76 29.31 28.81 30.24 31.32 31.08 30.44 27.48 24.99 25.01 26.38 26.97 29.47 29.22 30.38 30.56 30.66 30.30
17.58 17.95 17.17 17.91 16.14 16.87 17.51 17.98 18.86 19.50 19.97 19.70 20.72 22.96 24.45 25.32 25.90 27.65 26.80 27.80 28.06 28.85 30.83 29.87 29.53 30.28 27.29 27.52 26.95 24.66 25.86 24.33 26.23 27.11 28.05 28.53 29.05 29.33
16.54 16.35 15.73 15.43 14.26 14.30 15.04 14.77 15.40 16.92 17.31 18.96 19.41 20.05 21.41 22.40 23.34 25.37 26.01 26.71 25.85 25.67 26.16 28.30 30.52 29.34 28.96 29.15 26.12 25.93 25.12 24.77 26.42 26.80 26.61 25.53 27.12 27.97
14.95 13.65 13.08 13.14 12.99 12.68 12.65 13.23 14.06 13.25 14.64 15.84 16.46 17.23 18.53 19.71 21.03 22.71 23.90 24.04 23.34 23.72 24.01 25.15 27.86 29.06 28.60 27.44 28.60 26.69 26.40 26.32 27.19 26.97 26.71 24.98 24.98 28.51
13.47 12.82 12.66 12.92 12.17 11.46 11.63 11.30 10.28 11.42 13.15 13.94 14.34 14.63 15.86 18.55 20.00 19.63 20.74 21.65 21.81 22.45 23.58 25.54 25.44 26.17 24.75 21.40 25.01 26.56 26.62 26.85 26.95 26.59 26.99 26.29 25.23 26.84
13.51 11.96 11.77 12.09 12.35 11.32 10.75 10.38 10.62 11.00 11.14 11.78 12.24 12.98 13.93 16.13 16.18 16.58 18.14 18.02 19.59 20.39 21.20 22.75 22.41 22.24 22.35 22.61 23.10 24.31 27.95 27.26 26.54 24.85 25.24 27.54 28.07 27.63
12.14 12.71 12.97 12.79 12.52 12.33 11.50 11.48 10.61 9.86 9.75 10.51 11.08 11.19 12.50 14.19 14.17 15.32 16.24 15.60 17.42 18.86 18.24 18.86 20.77 21.84 24.79 25.68 24.58 22.69 24.64 26.97 27.02 25.56 25.61 24.77 24.18 24.87
10.04 9.81 10.35 11.11 11.56 12.27 12.43 11.42 11.66 10.79 9.96 10.15 10.27 10.95 11.75 13.27 12.92 13.44 14.29 14.74 15.58 17.08 17.62 20.32 21.68 22.56 22.80 21.96 20.89 20.34 21.27 23.63 24.50 24.19 24.16 24.11 25.16 22.89
7.55 8.73 9.26 9.21 9.53 9.51 9.37 10.75 10.71 10.91 9.78 8.88 9.46 9.91 10.49 10.49 12.06 12.80 13.32 13.59 14.12 14.02 15.06 17.01 19.20 21.16 20.45 19.85 20.60 20.36 19.16 20.24 21.37 20.99 21.17 23.04 23.66 24.45

GFSNE_sfc_wetblb_135.txt.gz
Wetbulb
41.27 42.29 42.97 44.51 46.35 47.64 50.61 53.18 52.82 48.55 51.83 58.55 61.19 64.87 66.38 66.50 63.39 65.53 64.90 56.79 52.02 51.44 51.64 53.01 55.26 57.06 57.76 58.58 59.38 60.35 61.46 61.87 62.10 62.17 62.29 62.87 63.31 63.58
39.50 40.56 41.56 43.06 44.59 46.57 47.35 49.14 52.21 51.98 49.37 55.63 59.95 63.73 64.93 65.24 63.74 64.85 64.49 56.70 51.08 49.83 49.65 50.01 51.61 54.02 55.16 56.22 56.82 57.46 58.38 58.98 59.54 60.09 60.72 61.11 61.93 62.35
37.63 38.83 39.62 41.18 42.31 44.05 46.25 47.42 48.02 51.01 51.39 55.46 59.24 62.07 62.92 62.53 63.15 65.08 64.42 64.61 62.98 49.63 48.91 49.09 49.27 50.32 51.06 51.73 53.32 54.11 54.70 55.66 56.46 57.58 58.25 59.23 60.33 61.15
33.61 35.39 37.18 37.76 41.23 43.50 44.09 45.14 46.77 48.54 51.00 51.93 56.64 58.96 61.47 63.55 63.82 61.37 63.89 64.91 64.89 53.08 48.91 48.51 48.27 48.11 48.36 48.56 48.92 49.63 50.74 51.44 52.33 53.44 54.54 55.76 57.50 58.62
32.11 31.97 33.65 34.56 38.71 40.92 42.65 44.52 45.40 48.27 49.01 49.97 52.00 57.86 60.19 62.19 62.28 63.32 63.26 64.18 65.17 56.31 48.31 47.62 47.42 47.18 46.71 46.71 47.62 48.16 48.53 48.54 48.20 49.47 50.19 50.74 51.95 53.97
31.90 31.45 31.69 32.36 35.38 36.58 39.28 41.68 43.81 45.50 47.29 47.98 50.69 54.17 58.36 60.93 61.27 60.65 60.30 62.68 62.84 63.47 55.37 51.65 48.60 47.02 46.32 45.95 46.46 46.84 46.88 47.58 48.43 48.20 48.02 47.47 47.47 49.83
29.87 30.21 30.67 32.25 35.01 34.77 35.41 35.19 38.20 42.35 44.75 46.29 49.37 53.20 55.46 56.89 58.03 60.23 59.82 61.01 62.47 62.88 61.75 57.37 55.44 53.46 51.15 45.70 48.25 46.77 46.15 46.50 47.37 48.00 48.02 46.75 46.57 47.84
27.07 28.21 29.00 29.48 30.63 32.34 33.00 32.80 32.42 33.27 38.39 41.18 43.38 43.40 42.19 41.71 44.29 49.42 56.14 58.07 57.60 52.78 54.57 56.04 54.66 54.88 53.97 53.08 47.56 46.02 44.72 45.43 46.13 46.93 47.47 47.11 46.39 45.84
25.43 25.43 26.61 27.47 28.28 29.33 30.31 30.27 30.49 31.69 31.29 31.94 31.19 29.67 30.62 30.86 33.51 40.63 49.06 51.88 51.80 49.69 54.68 49.65 45.28 46.39 44.52 42.79 42.31 44.69 44.18 45.28 44.90 45.64 45.66 45.30 44.94 44.39
24.47 24.23 24.03 25.11 26.56 27.44 27.99 27.69 27.99 28.88 29.93 30.76 30.35 30.16 31.03 31.88 32.50 36.87 40.80 43.70 46.93 37.49 36.31 39.14 35.87 35.33 36.05 38.20 38.99 39.50 40.27 42.10 41.37 41.77 42.56 43.11 43.85 44.01
23.37 23.49 23.60 23.32 25.90 27.47 24.82 25.15 25.63 26.58 31.26 32.52 32.54 32.43 31.85 32.69 32.38 32.49 30.37 37.51 39.32 33.33 30.87 32.43 32.43 32.79 32.79 32.61 34.56 37.54 37.47 37.85 38.03 38.62 39.60 40.09 39.96 40.37
22.37 22.76 23.55 23.43 24.13 24.48 22.74 23.01 22.47 25.11 27.22 28.34 29.19 30.71 30.60 31.04 32.15 30.99 29.18 27.24 31.78 33.12 31.81 30.71 32.79 33.33 33.33 32.43 32.61 32.97 33.52 34.78 36.42 36.89 37.64 38.44 39.78 40.75
20.73 21.26 22.30 23.40 23.69 23.47 23.38 22.45 22.62 24.78 25.58 27.12 27.68 27.88 29.39 29.03 29.25 31.59 31.51 29.13 26.38 26.47 30.17 30.32 32.05 32.59 32.61 32.05 31.72 31.74 32.43 32.55 33.86 34.69 35.53 35.92 36.54 38.00
20.68 21.02 22.48 22.83 22.97 23.07 21.69 22.40 22.92 23.26 23.60 23.24 24.18 24.86 25.24 26.62 28.37 30.71 31.21 31.88 31.60 29.76 30.92 30.74 30.87 29.41 30.85 32.07 31.18 30.80 30.35 31.21 32.58 32.61 32.59 33.03 33.24 33.57
23.94 22.25 22.20 21.95 21.90 21.92 21.91 21.53 21.20 20.96 20.98 19.94 20.28 22.30 24.42 26.82 28.12 28.26 30.60 32.17 32.14 32.25 32.01 31.81 30.13 31.11 30.19 28.38 28.60 27.11 28.77 29.36 30.41 29.97 31.02 30.50 30.58 31.72
23.78 23.53 22.34 22.23 20.76 20.85 21.00 20.89 20.97 20.70 19.86 19.89 20.49 22.88 25.16 24.28 25.32 26.78 26.21 28.33 27.87 28.37 31.57 32.22 31.70 31.06 29.81 29.33 28.82 27.36 28.13 26.08 28.74 29.30 29.34 29.06 29.61 30.17
24.08 23.78 22.49 21.37 20.22 19.72 19.71 19.46 19.48 19.85 19.35 20.18 19.98 19.97 21.32 22.22 22.85 24.81 24.33 25.31 25.22 25.15 25.43 28.00 30.97 31.45 30.17 29.22 29.30 30.05 29.45 28.85 29.58 29.12 29.23 27.52 27.76 28.48
21.38 19.95 19.40 19.95 19.37 18.93 18.49 18.46 18.63 17.78 18.50 19.44 19.28 19.22 19.32 20.72 20.89 22.47 22.42 21.91 21.92 23.52 24.65 26.10 26.21 27.49 30.00 29.10 28.92 25.96 29.85 29.62 30.38 31.23 30.74 27.86 26.55 28.43
18.57 17.43 17.84 18.00 17.55 17.48 17.64 17.88 17.55 17.74 17.88 18.19 17.66 17.79 18.15 19.78 19.66 19.71 20.30 20.12 20.22 21.66 23.48 24.79 24.27 22.46 21.02 21.58 28.02 28.09 25.44 29.34 29.93 29.60 29.77 28.68 26.85 27.22
16.98 15.78 15.05 15.46 15.32 15.51 15.46 15.65 16.80 17.82 16.98 17.08 16.99 17.06 16.82 17.66 17.49 17.52 18.33 17.33 18.34 19.55 20.23 21.72 22.16 21.69 20.80 21.86 23.95 26.59 27.06 26.00 27.73 28.64 27.08 27.43 28.02 28.38
14.07 14.52 14.98 14.04 13.68 13.76 14.72 15.09 15.57 15.99 16.10 15.82 16.10 15.85 16.27 16.68 15.95 16.72 16.74 15.61 16.88 17.51 16.77 17.58 20.64 23.12 25.83 27.35 26.27 26.20 25.91 26.34 26.15 24.99 25.88 28.18 26.68 27.37
12.23 12.25 12.91 12.41 11.89 11.37 12.50 13.37 13.77 13.82 13.95 13.98 14.36 15.03 15.98 16.21 15.15 15.20 15.35 14.94 15.66 16.30 16.33 18.04 21.02 22.27 23.18 22.98 21.09 24.13 25.24 26.06 25.83 25.53 25.32 24.93 23.90 23.58
10.54 10.54 11.03 10.46 10.29 9.48 9.88 10.13 10.10 10.50 10.44 10.79 11.97 12.20 13.72 13.98 14.51 15.02 14.81 14.55 14.66 14.29 14.37 14.84 17.71 20.10 20.61 22.19 22.10 22.62 22.81 23.85 24.51 23.76 23.19 24.73 25.98 28.06

GFSNE_sfc_wetblb_138.txt.gz
Wetbulb
37.65 38.55 38.97 40.17 41.80 43.31 43.21 43.91 43.03 41.32 43.20 48.43 51.09 55.96 59.52 62.55 61.80 63.31 62.30 56.98 52.13 52.02 52.79 54.06 56.04 57.19 57.92 58.84 59.74 60.55 61.74 62.17 62.28 62.46 62.65 63.01 63.58 63.78
35.34 35.36 36.28 37.91 39.55 41.44 42.39 43.89 44.73 43.61 41.37 47.11 49.97 53.20 55.91 59.36 60.22 62.17 62.94 58.06 50.91 50.20 50.85 51.70 52.70 54.48 55.41 56.46 57.04 57.92 58.88 59.64 60.35 60.52 60.91 61.40 62.04 62.53
33.66 32.77 33.73 34.59 37.62 36.92 39.97 41.84 43.65 45.00 42.85 45.14 48.45 51.67 53.22 55.90 57.19 59.48 61.82 62.58 61.57 50.49 49.68 49.54 49.54 50.39 51.41 52.57 53.35 54.56 56.11 56.92 58.04 58.76 59.43 60.32 61.35 61.96
31.51 31.32 31.46 33.26 33.02 34.55 37.27 39.01 41.57 43.42 43.66 42.54 45.74 47.71 50.13 53.22 55.90 58.19 60.84 62.61 62.75 55.18 50.00 48.64 48.08 47.91 48.46 49.18 49.36 50.09 51.54 53.17 54.42 55.37 56.52 57.76 59.13 60.21
29.93 30.32 30.15 30.41 30.90 34.01 36.28 38.42 41.00 42.98 44.30 44.13 45.11 47.80 48.74 50.98 52.39 56.52 57.88 58.88 61.19 56.26 49.36 48.82 49.00 49.65 48.44 48.28 48.09 48.64 48.82 49.36 49.91 50.99 50.99 51.90 53.52 55.43
28.13 28.76 29.17 29.31 30.80 31.90 33.28 32.93 35.74 38.22 40.91 42.11 44.52 45.93 47.01 49.58 52.18 53.24 54.60 56.48 57.69 60.28 54.93 51.68 50.01 49.18 48.82 48.64 47.17 46.79 47.35 48.08 47.91 48.09 47.91 46.64 47.19 48.82
25.55 25.83 27.47 29.62 31.43 31.79 31.31 30.31 31.16 31.94 36.57 38.49 43.18 44.61 43.61 39.92 38.96 39.45 45.56 50.32 55.66 55.70 55.69 53.56 52.13 52.22 50.61 47.70 49.41 46.05 45.70 46.57 47.30 47.98 48.06 46.46 46.10 46.64
22.91 23.29 25.12 26.95 27.86 29.46 31.06 30.99 30.59 29.48 30.32 33.72 31.35 31.66 31.31 30.63 32.71 33.38 38.56 47.62 50.46 45.18 49.92 52.57 53.74 52.51 52.67 52.43 48.26 46.28 43.87 44.40 44.94 45.52 45.70 46.10 46.17 46.28
21.07 21.90 22.70 24.62 26.32 25.61 27.72 29.35 29.03 31.06 31.02 29.99 28.11 28.29 28.55 29.92 30.67 31.85 36.48 39.74 44.04 35.95 39.93 44.11 40.97 40.66 39.85 40.77 40.85 42.00 43.15 43.73 44.61 44.80 46.10 45.19 44.47 44.29
20.61 21.90 21.81 22.52 24.47 24.46 23.95 24.23 25.26 26.74 29.38 30.08 29.23 28.94 29.83 31.43 31.03 32.00 32.93 35.60 37.89 31.98 31.63 34.30 33.95 33.41 33.95 35.39 39.10 39.41 39.67 40.08 40.36 41.30 43.00 43.74 43.02 44.11
20.94 21.50 21.73 22.20 25.40 25.78 21.51 21.48 22.24 23.45 27.84 30.91 30.91 31.09 31.21 31.72 32.63 30.41 27.76 28.88 33.20 30.92 30.02 28.35 32.69 32.50 32.50 32.32 33.74 36.91 36.82 37.50 38.09 38.49 39.07 39.87 39.74 40.61
19.85 20.66 24.05 22.95 24.46 24.34 20.32 19.96 19.13 20.82 22.52 23.90 25.53 26.32 28.45 28.77 30.79 30.30 29.54 26.09 26.19 25.46 29.21 27.23 31.74 32.32 32.87 31.96 32.11 32.41 33.05 35.09 36.10 37.08 37.33 37.94 38.35 39.01
18.98 18.83 20.09 23.69 23.98 23.75 23.20 20.28 19.92 21.57 21.29 21.87 22.85 23.22 24.01 25.53 26.55 29.27 30.29 29.57 26.75 26.10 30.25 29.44 30.00 29.62 31.45 32.11 31.81 31.29 31.53 31.42 32.81 33.50 35.15 35.92 36.45 36.86
18.72 19.47 20.15 23.28 22.92 23.11 20.76 22.23 22.17 20.00 19.64 19.25 19.36 20.56 20.73 22.20 23.97 25.49 27.24 29.99 30.89 28.97 30.31 31.00 28.32 28.25 28.22 29.23 29.42 30.08 30.59 30.47 31.02 30.73 31.59 32.93 33.92 34.24
21.92 22.20 23.19 22.86 22.50 20.70 21.80 20.79 18.79 17.91 17.14 16.29 16.30 18.07 20.62 22.18 23.42 23.24 24.40 26.92 28.75 29.26 28.80 28.55 29.92 29.50 29.24 26.82 27.04 26.89 27.24 29.01 29.42 29.43 29.52 29.40 29.36 30.73
20.45 19.72 19.05 21.28 18.65 18.02 18.71 18.33 17.38 17.15 16.32 15.42 15.68 17.50 20.06 20.16 20.12 21.54 20.36 21.22 22.25 23.26 26.92 27.07 28.18 29.12 27.05 27.50 28.30 27.76 28.64 25.79 28.80 28.91 29.21 28.72 29.16 29.64
18.20 17.30 15.69 15.47 14.78 14.92 15.67 16.64 16.30 15.94 15.34 15.44 15.23 15.23 16.82 17.80 18.21 20.17 19.33 18.84 18.35 18.57 20.40 23.21 25.29 27.14 27.31 26.54 24.25 24.84 27.64 28.34 29.66 29.39 28.68 27.12 27.89 28.48
15.93 13.47 12.15 12.00 12.05 12.51 12.42 12.68 14.34 14.13 14.62 15.33 14.47 14.60 14.60 15.31 15.91 17.46 17.79 16.56 16.23 17.41 18.13 19.01 20.52 20.59 22.19 26.23 27.70 23.18 24.45 26.50 28.90 29.95 28.58 26.91 25.65 28.11
13.20 12.24 10.52 10.31 10.64 11.25 11.35 11.52 11.59 13.27 14.56 13.65 12.95 12.92 13.68 14.48 14.37 14.60 14.74 14.68 15.04 16.15 17.53 17.86 17.20 16.53 14.04 14.44 23.43 27.75 22.85 24.34 24.81 26.62 26.25 25.97 24.43 25.06
12.05 10.73 9.45 9.68 9.61 9.57 9.61 9.83 10.49 10.99 10.61 10.97 10.91 10.94 11.45 12.71 12.08 12.33 12.73 11.59 12.61 14.14 14.71 15.41 15.01 15.22 13.65 14.81 17.70 24.73 27.17 23.06 22.63 22.54 24.37 25.58 26.00 28.54
9.78 9.52 9.43 8.43 7.83 7.91 7.55 7.57 8.02 7.93 7.22 6.78 7.85 8.60 8.62 11.21 10.15 11.19 10.92 9.95 10.99 12.08 10.67 11.34 14.76 17.59 19.47 21.25 18.46 17.94 24.99 26.63 25.41 22.51 22.19 21.70 23.54 25.12
7.45 7.52 8.21 7.12 5.87 5.32 5.19 5.62 5.58 5.33 4.35 4.30 4.31 5.59 6.47 9.35 9.48 9.56 9.60 8.40 9.73 10.29 10.43 12.49 14.97 16.09 16.16 16.35 16.05 18.03 20.55 22.34 25.59 25.45 25.04 24.19 21.22 18.45
5.35 5.54 6.00 4.55 3.88 3.34 4.45 4.22 3.50 3.35 2.16 2.40 2.28 3.82 3.41 5.84 9.27 9.89 9.54 8.82 9.23 8.84 9.24 8.81 10.99 13.17 13.68 15.45 14.52 14.88 17.54 20.27 22.24 21.77 21.17 25.08 26.73 27.80

GFSNE_sfc_wetblb_141.txt.gz
Wetbulb
34.24 34.25 33.78 35.79 37.55 38.54 40.40 40.86 39.45 36.13 37.44 41.64 44.00 49.86 51.96 54.15 55.13 58.71 61.31 56.53 51.82 50.98 51.18 53.45 55.79 57.60 58.37 58.92 59.90 60.99 61.94 62.56 62.81 62.70 62.93 63.25 63.73 63.97
32.16 32.14 32.15 32.87 33.93 35.03 37.99 39.17 39.98 38.89 36.88 41.98 43.41 45.92 47.87 50.38 51.52 52.48 57.22 54.72 53.06 49.18 48.63 49.89 51.88 54.97 56.29 56.85 57.07 58.20 59.32 60.00 60.69 61.07 61.28 61.81 62.67 62.92
29.42 30.30 30.44 31.02 30.88 32.31 33.92 34.87 36.16 37.57 36.68 40.35 44.23 46.19 46.32 46.79 49.13 51.34 52.21 54.48 59.63 52.65 50.79 47.73 48.13 50.23 52.06 54.22 54.96 55.67 56.55 57.52 58.32 59.04 59.73 60.76 61.63 62.42
25.73 27.05 28.08 29.20 29.00 32.28 33.87 35.73 35.88 38.05 37.87 37.92 41.32 42.69 44.39 46.63 47.79 47.58 50.20 53.25 55.93 55.45 51.39 50.45 48.04 47.75 48.11 48.68 50.85 51.39 52.30 53.57 54.30 55.85 57.07 58.26 59.61 60.68
24.71 24.62 25.39 27.40 28.68 30.01 32.04 30.97 32.44 33.05 34.49 38.41 39.79 42.65 44.48 47.18 46.84 47.98 48.14 51.39 55.99 54.93 50.58 49.04 47.01 47.01 47.21 47.93 47.57 48.68 50.13 50.13 50.85 51.58 52.12 53.21 54.72 56.55
24.69 24.71 25.40 27.40 28.09 28.55 29.95 29.33 29.79 30.41 32.37 34.81 37.57 40.01 43.50 42.97 39.93 40.45 38.58 43.92 45.13 53.08 53.54 49.91 49.16 46.99 46.41 47.17 47.19 47.19 47.21 48.13 48.86 49.22 49.22 48.31 48.68 51.21
23.21 23.41 25.22 28.22 29.09 28.72 28.82 28.20 28.12 29.00 29.85 31.02 32.81 34.22 31.52 31.28 31.20 33.95 35.06 39.39 45.44 40.20 46.55 53.52 53.42 51.97 50.01 46.12 48.60 47.03 46.12 46.48 47.03 48.49 48.84 46.86 46.14 47.59
20.66 21.57 23.99 25.96 25.52 26.78 28.21 28.66 28.06 27.37 27.32 27.58 27.64 26.55 27.89 29.08 30.99 31.31 33.28 39.32 43.91 37.58 35.03 47.06 46.85 45.68 43.68 41.35 41.53 42.97 45.59 46.30 44.83 45.56 46.12 45.59 45.58 45.59
19.78 19.86 22.19 23.73 24.14 22.75 24.66 25.83 26.10 27.41 29.14 27.16 25.95 26.03 26.32 28.28 30.17 30.27 31.09 34.17 36.69 31.35 32.72 37.07 36.80 35.43 36.79 38.88 39.97 40.22 40.82 40.86 43.17 43.91 44.47 43.58 43.06 43.22
19.03 19.67 19.65 20.81 23.24 21.92 20.97 21.24 22.01 22.83 25.52 26.90 25.75 26.37 27.45 28.45 29.78 31.05 30.45 31.73 32.30 31.17 30.74 28.06 33.25 33.09 33.63 34.40 37.27 37.90 38.32 38.61 39.04 39.69 40.89 41.69 42.31 42.49
17.91 19.78 20.63 20.69 24.57 24.51 19.60 18.59 18.69 19.97 24.35 26.98 27.02 27.15 27.56 28.30 28.29 28.86 27.93 27.06 26.89 27.66 29.59 28.23 31.43 32.00 32.36 32.12 32.87 35.18 35.67 35.82 37.14 37.75 38.16 38.44 38.56 40.91
16.85 19.12 24.35 22.66 23.84 23.66 18.38 17.72 15.90 17.25 18.99 20.38 22.16 23.22 24.52 24.49 26.32 24.69 27.16 23.63 25.32 24.47 27.29 26.61 29.17 29.44 30.22 32.00 31.87 31.93 32.19 33.38 35.10 35.22 35.83 36.41 36.71 36.58
17.63 17.77 20.24 23.80 23.92 22.84 21.87 18.05 17.34 18.00 17.25 17.51 18.45 20.07 21.02 21.55 21.68 23.06 23.16 26.73 23.59 22.43 25.98 27.59 28.47 28.24 28.48 30.11 31.11 30.75 30.70 30.38 31.26 31.87 32.79 33.73 34.72 34.58
17.11 19.42 19.76 22.52 22.28 22.62 19.25 20.44 20.38 16.46 16.08 15.18 15.20 16.01 16.63 18.41 19.82 20.45 21.30 23.75 25.39 24.45 26.03 25.48 27.40 27.12 26.97 26.55 26.68 29.75 29.99 30.48 30.16 29.76 30.05 31.17 31.78 32.32
17.96 19.35 20.73 19.96 19.38 18.28 20.32 18.97 16.17 14.97 13.75 12.68 12.37 14.23 15.83 17.64 18.82 18.73 20.16 21.57 22.14 23.39 22.55 23.17 22.89 26.32 26.39 24.28 24.41 26.16 27.55 28.98 30.39 29.46 29.47 28.63 28.55 29.45
15.28 14.22 13.47 17.11 13.72 13.63 14.49 15.44 14.58 14.35 13.12 12.18 12.46 14.57 16.11 16.17 15.60 16.64 15.76 17.27 16.85 17.99 20.26 20.06 20.68 21.53 24.35 24.92 24.44 23.31 25.19 26.05 29.21 29.93 29.61 28.73 28.90 29.01
13.11 12.60 11.02 10.64 9.89 10.44 11.13 12.24 12.81 12.42 11.91 12.12 11.74 12.55 13.44 14.23 14.44 15.67 15.22 15.19 13.60 14.06 14.13 16.67 18.97 19.92 20.51 21.66 21.65 23.06 22.93 23.39 25.45 28.22 27.21 27.05 27.44 28.24
11.83 8.51 6.99 6.86 7.23 8.02 8.15 8.97 9.90 9.23 10.15 11.19 10.31 10.79 11.78 12.08 12.70 13.59 13.62 12.71 11.98 12.88 12.71 14.16 15.14 14.68 16.33 19.58 24.87 21.97 20.52 19.86 23.25 26.26 25.46 25.00 24.32 26.02
8.95 7.15 5.32 5.05 5.91 7.20 7.16 7.50 6.85 7.40 8.61 7.89 7.19 7.62 8.63 11.41 11.37 11.21 10.82 10.99 11.01 11.89 12.19 13.39 12.96 11.59 9.31 8.74 16.87 25.68 22.20 21.26 21.44 21.76 23.93 23.77 22.20 24.03
8.43 6.52 4.57 4.68 4.85 5.27 5.32 5.38 5.77 4.21 3.41 4.08 3.60 4.27 4.19 7.98 9.36 9.48 9.17 7.97 9.07 9.94 9.90 11.36 10.93 10.88 9.99 11.07 14.12 18.95 24.55 22.71 18.75 19.21 19.76 21.07 24.80 27.75
6.14 6.20 4.58 4.03 3.23 3.91 3.37 1.98 2.47 0.46 -0.02 -0.06 0.64 1.61 0.84 3.83 6.59 8.79 8.45 6.29 7.84 8.30 6.77 7.46 10.46 13.81 15.72 16.89 11.21 12.08 16.28 22.81 24.11 21.72 19.45 16.20 16.38 20.54
3.28 4.84 3.78 2.92 -0.07 0.47 1.73 -2.76 1.26 -1.67 -1.63 -0.76 -1.00 -0.93 -1.42 1.48 3.81 5.50 8.00 5.84 7.32 6.95 7.35 9.08 11.33 12.02 11.77 11.24 8.56 8.76 12.51 16.17 21.26 23.64 26.08 22.58 17.72 13.87
-4.44 1.78 0.17 -4.67 -1.11 -1.41 0.64 -1.02 -2.19 -3.88 -3.27 -2.53 -1.86 -2.29 -3.50 -1.33 2.25 3.48 6.85 6.88 7.13 6.53 6.62 5.92 7.91 9.17 9.30 10.05 7.99 8.25 10.43 10.34 14.00 15.29 22.38 26.07 27.40 27.41

GFSNE_sfc_wetblb_144.txt.gz
Wetbulb
30.45 31.02 31.55 32.55 32.96 33.66 34.33 34.61 34.07 31.60 33.38 39.04 40.32 44.76 45.14 46.74 48.16 48.88 49.08 49.51 49.13 49.46 49.38 51.13 53.73 55.86 56.92 57.99 58.79 60.47 61.12 61.67 62.15 62.31 62.49 63.10 63.45 63.80
27.48 27.68 28.72 29.08 29.65 31.25 31.25 33.37 34.03 32.86 30.55 36.53 38.44 41.57 44.65 46.67 47.51 47.97 48.53 48.96 48.06 47.66 48.30 48.49 49.74 52.38 53.47 54.63 55.56 56.10 58.09 59.42 60.36 60.74 61.03 61.74 62.34 62.78
25.05 25.63 25.90 27.37 28.21 31.05 32.71 33.76 33.94 34.28 31.77 34.90 38.42 40.75 41.33 42.83 44.72 46.06 47.12 47.80 49.39 47.86 47.71 47.94 47.38 48.31 50.30 51.59 52.68 53.04 54.09 56.70 58.01 59.13 59.67 60.47 61.61 62.11
23.76 24.62 24.80 27.60 27.50 28.58 30.59 30.14 29.93 31.39 30.51 28.97 33.55 36.95 42.25 44.61 44.79 46.93 48.73 49.87 49.94 49.96 47.38 46.90 47.67 47.15 47.22 47.60 48.89 49.61 49.96 51.61 53.22 55.33 56.82 58.35 59.61 60.54
23.54 24.07 24.79 27.20 26.45 26.78 29.40 28.28 28.56 29.91 31.18 31.47 32.72 37.10 39.39 42.28 38.11 41.79 41.63 43.01 46.60 46.91 46.95 46.98 47.60 46.84 45.75 46.11 46.84 47.42 47.78 48.69 49.25 49.98 50.88 52.69 54.99 56.96
23.39 24.32 25.44 26.60 26.28 26.76 27.39 26.22 26.01 27.18 28.71 29.71 30.22 32.97 31.69 33.88 34.72 35.79 35.25 39.76 39.76 42.93 41.99 47.18 46.80 47.06 47.24 44.85 44.67 45.73 46.31 47.20 47.56 47.42 47.62 47.07 48.34 51.24
22.32 22.80 25.13 26.77 27.17 27.28 27.27 25.87 24.85 25.18 25.01 25.87 26.20 27.07 26.74 27.09 28.76 31.50 32.60 35.11 38.87 33.95 36.21 45.62 44.89 42.79 41.75 41.63 41.61 42.04 44.29 45.19 45.93 46.88 47.24 46.69 46.71 46.89
19.53 20.78 22.58 24.40 23.41 24.71 26.66 26.97 26.37 24.04 23.31 22.71 23.32 23.02 24.29 25.14 27.31 29.97 31.35 33.25 36.96 34.25 31.58 39.69 39.48 37.06 38.50 38.83 39.51 39.43 39.84 40.67 42.36 43.74 44.85 44.70 45.26 45.44
16.40 17.71 20.39 22.30 22.07 20.22 22.09 23.03 23.34 25.41 26.12 24.28 21.80 22.22 22.45 24.42 24.76 27.74 28.95 30.27 30.05 29.60 29.92 32.29 34.18 34.10 35.04 35.99 37.34 37.97 38.06 38.71 38.92 39.56 39.74 40.20 41.04 41.62
11.94 14.89 15.47 19.15 21.54 19.73 17.65 17.31 18.31 19.50 22.23 24.22 23.22 23.25 24.15 25.14 24.71 26.73 27.67 31.96 32.05 29.81 26.78 26.26 31.62 31.29 33.40 33.27 35.24 35.54 35.48 36.85 36.99 37.41 37.60 37.50 37.37 38.26
14.17 17.65 17.88 19.71 23.77 23.00 16.33 14.52 14.83 15.71 20.64 23.50 24.15 24.42 24.61 25.33 25.19 23.13 23.55 23.35 24.50 26.39 24.77 24.45 29.26 29.07 32.19 31.63 31.99 33.68 33.33 33.85 34.60 34.84 35.50 36.01 36.22 36.79
16.70 15.73 23.57 22.52 22.81 22.27 15.87 14.62 12.31 12.96 14.86 15.89 17.28 18.73 20.15 20.20 22.77 20.58 21.32 19.69 21.02 20.16 22.75 21.45 27.46 27.93 26.76 32.01 31.44 31.56 31.51 32.53 32.73 33.11 33.54 34.29 34.62 33.67
14.79 15.77 17.73 22.12 22.94 21.26 20.18 15.99 14.60 13.73 13.37 14.22 15.20 15.47 16.32 16.20 17.01 18.28 18.68 19.49 16.40 16.86 19.87 20.50 24.93 24.47 27.36 27.57 30.70 30.08 30.98 31.01 31.04 31.19 31.97 32.35 32.79 32.80
11.82 14.08 15.66 19.81 19.51 20.33 17.16 18.49 17.82 13.57 12.55 11.93 12.14 12.52 13.44 13.92 14.73 15.73 16.69 17.78 16.90 16.82 17.97 18.94 18.75 18.20 23.65 23.58 22.32 26.10 27.64 30.72 30.58 30.45 30.30 30.70 30.97 31.26
14.10 16.53 17.22 16.68 16.19 14.64 17.24 15.86 13.01 11.89 10.78 9.49 9.36 11.07 12.25 14.22 14.74 14.76 16.04 16.72 16.88 16.47 16.73 16.63 16.08 16.96 19.75 22.37 21.58 22.00 22.25 26.91 26.96 28.62 29.55 28.76 28.12 28.33
10.51 9.43 8.73 13.59 8.79 9.23 10.58 10.98 9.53 9.51 9.43 8.47 8.98 11.32 12.95 12.95 11.86 12.97 12.12 13.31 12.06 11.89 14.57 15.32 15.31 15.35 13.75 19.22 21.02 20.25 21.67 19.68 23.46 25.09 26.83 28.65 27.93 28.52
7.88 7.95 6.70 6.87 6.47 6.77 7.47 8.01 6.86 6.86 6.55 7.38 7.31 8.04 10.55 11.68 11.49 12.37 11.86 11.74 9.23 8.97 9.63 12.67 14.92 15.69 15.80 11.46 15.45 19.09 20.33 20.95 22.60 22.40 24.27 24.11 26.01 26.52
7.76 3.70 2.14 3.01 3.57 4.57 4.58 4.61 4.20 3.95 4.83 5.75 5.12 5.78 6.10 9.68 10.32 10.93 10.90 10.10 8.17 8.93 9.02 10.45 11.30 11.67 13.63 14.95 20.51 17.22 16.35 17.53 20.36 22.00 21.99 19.72 21.59 24.59
4.48 3.15 0.77 1.34 3.26 3.97 3.70 3.71 1.18 2.35 3.76 2.95 1.77 2.20 2.74 6.64 8.69 8.83 8.38 8.68 8.22 8.70 9.24 10.15 9.70 8.80 6.06 5.15 14.12 20.76 13.61 15.71 16.96 18.21 20.78 19.91 17.64 21.26
5.22 2.88 0.69 1.12 2.37 2.62 1.61 1.68 0.30 -0.57 -0.67 -0.01 -0.54 -1.06 -2.13 2.53 4.85 6.09 7.13 5.81 6.63 7.46 7.38 8.59 8.18 8.20 6.91 7.01 7.97 10.81 18.39 15.14 13.95 15.05 16.33 20.84 20.55 25.02
4.22 2.45 1.45 0.20 0.59 1.02 -0.87 -4.26 -8.77 -5.22 -5.16 -5.68 -2.98 -3.21 -5.66 -0.85 1.18 2.81 5.22 4.74 5.48 6.31 4.49 5.07 8.00 11.24 12.80 12.40 4.16 6.28 11.10 17.34 16.50 15.65 16.66 19.02 15.11 17.68
1.58 1.30 0.93 -0.55 -4.01 -2.97 -5.32 -14.20 -10.22 -10.32 -6.46 -4.74 -6.57 -6.99 -7.55 -3.39 -1.43 -0.41 1.65 4.41 5.81 5.31 5.47 7.22 9.36 9.38 8.81 7.43 4.85 5.30 7.42 9.63 15.16 18.47 19.89 19.94 18.51 17.61
-6.95 -0.56 -5.91 -9.13 -8.40 -8.59 -1.25 -8.05 -10.94 -13.50 -7.98 -5.88 -6.06 -5.76 -11.89 -5.93 -1.77 -0.88 0.71 3.36 5.60 4.72 4.93 4.44 5.85 7.06 6.29 6.45 4.98 4.26 4.81 6.35 9.27 10.43 13.00 19.27 21.19 24.05

GFSNE_sfc_wetblb_147.txt.gz
Wetbulb
26.32 27.59 26.95 27.69 28.44 29.14 30.28 31.13 30.06 26.50 28.31 34.50 35.60 39.88 40.07 41.15 42.23 42.56 43.30 45.36 45.52 45.56 45.97 47.59 49.48 51.06 52.83 54.86 56.69 58.53 60.20 61.68 62.25 61.98 62.25 63.16 63.23 63.71
25.54 25.24 25.51 26.32 27.84 29.37 30.10 32.01 32.66 30.09 26.90 32.17 33.68 35.56 38.44 41.15 42.18 42.42 43.02 45.76 45.55 45.26 45.59 46.40 47.32 48.72 49.82 51.65 53.47 55.12 57.05 58.43 60.11 60.90 60.96 61.34 61.86 62.63
24.34 24.81 25.57 27.10 26.82 27.34 29.08 30.27 28.37 28.96 25.93 28.68 31.35 33.15 33.70 35.45 40.45 43.00 44.67 46.18 47.32 46.34 46.18 45.26 45.35 45.90 46.82 47.89 49.39 51.58 53.29 54.94 56.18 57.59 59.24 59.83 60.96 61.81
23.44 24.04 25.49 26.87 25.81 26.61 27.98 26.28 26.64 26.93 27.89 26.73 30.15 31.87 34.65 36.76 38.15 38.74 43.79 45.08 44.39 45.66 44.65 43.02 44.19 45.10 45.50 45.32 45.82 47.45 48.45 49.72 50.81 53.00 54.79 56.57 58.52 59.83
23.76 23.63 25.58 25.61 24.55 25.48 27.20 25.08 25.31 26.98 26.79 27.37 27.14 30.27 30.67 30.76 31.88 36.78 39.00 40.08 42.18 43.25 42.02 42.44 43.27 42.53 42.59 42.46 42.89 43.78 44.99 46.08 46.46 47.92 48.99 50.64 52.82 55.44
22.95 23.66 24.93 24.36 24.98 25.24 25.64 25.12 24.72 24.93 24.88 24.59 24.70 25.34 26.67 27.65 29.23 30.22 31.40 35.71 36.63 36.75 37.67 41.90 41.35 41.42 40.74 40.61 40.82 41.14 41.81 43.73 44.94 46.96 45.19 45.21 46.66 49.56
21.68 22.44 24.37 25.19 25.80 26.14 25.35 23.78 23.54 23.17 23.37 22.76 22.50 22.93 22.50 22.35 23.46 26.39 29.99 31.71 35.07 29.74 32.09 37.75 38.63 38.18 37.98 38.25 38.57 39.07 39.67 40.17 40.65 41.72 43.38 43.70 43.38 44.99
18.83 19.96 22.46 23.33 21.75 22.89 24.00 24.04 23.92 22.19 20.62 20.37 20.82 20.02 20.92 21.70 22.50 23.37 26.80 28.88 31.49 29.95 27.51 34.68 35.51 34.24 35.44 36.12 36.98 36.80 37.76 37.90 38.31 38.68 38.73 38.84 38.59 40.70
12.37 14.69 19.97 21.81 20.10 17.51 19.02 19.92 19.52 22.55 23.32 21.23 18.90 19.05 19.62 21.08 21.22 22.13 25.05 29.82 27.07 24.80 25.69 30.64 31.87 32.19 33.14 34.58 35.57 35.43 35.60 36.00 36.26 36.43 36.80 36.95 36.94 37.66
10.86 12.39 10.03 16.40 20.48 17.04 14.66 13.07 12.66 14.19 19.05 20.80 19.54 19.67 20.37 21.95 20.72 22.31 23.56 26.29 29.96 25.41 21.57 22.70 29.29 29.10 32.64 32.23 34.60 34.69 34.65 34.61 34.71 35.07 35.17 35.51 35.62 36.05
11.55 16.79 15.54 15.91 22.82 21.23 13.07 11.76 10.95 11.39 17.11 21.04 21.56 21.77 21.41 22.52 21.93 19.35 18.38 18.08 21.32 21.96 19.09 18.92 26.02 25.96 31.19 31.27 30.35 32.02 33.55 33.79 33.89 33.80 33.97 34.22 34.21 34.59
11.56 14.44 22.20 20.82 21.56 20.85 13.33 11.93 9.29 9.86 10.70 11.83 13.46 15.36 17.24 16.97 19.61 16.24 17.30 13.63 14.65 12.91 15.45 15.57 20.83 20.83 25.71 30.74 29.47 28.27 29.59 31.16 32.38 33.18 32.83 32.92 33.08 31.87
5.59 11.82 15.82 20.59 20.81 19.51 18.05 13.89 12.67 11.03 10.48 10.92 11.27 11.57 12.87 13.26 13.90 14.87 15.37 15.03 11.95 11.23 14.81 15.23 17.61 16.72 21.42 24.57 26.93 25.96 26.58 26.98 27.38 29.60 32.03 31.94 31.85 31.44
5.19 7.52 13.29 17.81 17.90 17.96 14.45 15.69 14.62 9.71 9.24 8.41 8.78 9.52 10.08 10.24 11.11 12.71 14.10 14.13 12.24 10.59 13.84 14.43 12.85 13.54 14.71 20.80 19.94 23.47 24.06 26.13 25.17 25.00 27.48 30.53 30.38 30.37
10.20 14.63 15.01 14.40 13.68 11.96 14.39 12.53 8.19 6.83 5.85 4.70 5.20 6.67 10.21 11.16 11.25 11.61 13.16 13.16 12.86 12.97 13.58 12.97 11.98 12.50 10.51 16.77 17.00 17.77 18.91 22.88 23.29 23.25 24.02 25.67 27.28 27.75
7.92 6.29 7.22 11.68 5.86 5.56 6.45 6.60 5.36 5.30 4.49 3.82 3.47 5.44 9.78 10.56 9.53 10.67 10.16 9.79 8.33 8.94 12.04 12.49 12.38 12.44 6.34 8.60 16.25 13.49 15.31 15.68 18.36 19.04 22.14 23.77 25.35 26.80
5.34 5.13 4.21 4.50 4.10 4.16 4.37 3.84 3.85 4.48 3.14 3.39 2.97 3.74 5.79 9.01 9.27 10.22 10.16 9.37 6.61 6.15 6.63 10.04 12.22 12.96 10.27 5.26 12.72 11.96 11.71 13.31 15.20 15.72 18.14 19.19 20.94 22.54
5.60 1.45 0.29 1.26 1.72 2.38 2.01 1.19 1.51 1.54 2.44 3.11 2.10 2.46 2.53 5.65 7.43 8.93 8.76 7.45 6.14 6.70 6.65 8.00 8.55 8.84 10.35 10.76 17.28 10.06 10.43 11.95 12.59 13.15 15.04 15.95 17.38 20.65
2.70 0.88 -1.26 -0.20 1.22 1.35 1.20 0.32 -1.30 -0.20 1.07 0.38 -1.22 -1.50 -0.80 3.60 5.26 5.90 6.72 6.77 6.20 6.57 7.00 7.93 7.39 6.02 2.77 0.85 9.58 16.54 9.03 10.44 10.59 10.73 13.51 13.73 15.30 18.72
3.02 -0.04 -2.13 -0.31 1.06 -0.12 -0.98 -1.70 -3.20 -3.67 -3.44 -3.01 -3.71 -4.52 -6.36 -0.32 1.57 2.63 4.16 4.97 4.99 5.83 5.61 6.53 6.06 5.83 3.94 2.61 2.98 7.32 15.38 10.00 9.70 9.95 11.54 14.91 17.93 23.79
1.87 0.62 -1.10 -0.99 -0.61 -0.64 -6.88 -9.97 -16.43 -10.54 -10.15 -13.54 -6.90 -6.87 -10.08 -4.55 -2.11 -0.30 0.64 1.93 3.71 4.71 3.14 3.64 6.38 9.35 10.22 9.60 1.21 3.19 7.48 14.16 13.83 11.53 12.60 12.91 12.84 14.23
-1.35 -0.41 -0.88 -2.74 -5.32 -5.04 -12.26 -19.33 -14.26 -13.55 -9.01 -7.28 -10.35 -14.80 -14.83 -8.04 -4.04 -2.66 -1.30 0.52 3.83 3.77 4.24 6.03 7.78 7.61 6.84 4.66 1.71 1.27 4.05 6.95 12.17 14.84 16.38 15.99 13.32 10.89
-7.91 -3.27 -7.57 -10.63 -10.45 -10.27 -3.26 -13.35 -14.07 -16.07 -12.26 -10.10 -9.40 -8.05 -19.69 -10.27 -3.88 -3.16 -2.08 0.74 3.20 2.86 3.64 3.24 4.74 5.45 4.65 4.48 2.26 1.39 2.09 3.26 5.52 6.06 8.78 15.61 17.52 19.55